Location: Bydgoszcz
(53.1222°N, 17.9945°E)
Time: 07:56:26
(UTC+02:00)

Envisat - Visible Passes

Search period start: 18 October 2019 00:00
Search period end: 27 October 2019 23:00
Orbit: 764 x 766 km, 98.1° (Epoch: 17 October)

Date Brightness Start Highest point End Pass type
(mag) Time Alt. Az. Time Alt. Az. Time Alt. Az.
18 Oct 6.6 06:09:57 10° ENE 06:11:34 11° E 06:13:09 10° E visible
18 Oct 3.8 19:07:26 10° S 19:12:24 54° W 19:17:24 10° NNW visible
19 Oct 3.0 18:30:29 10° SSE 18:35:34 81° ENE 18:40:41 10° NNW visible
19 Oct 5.8 20:11:46 10° SW 20:15:14 18° W 20:18:43 10° NW visible
20 Oct 6.1 06:33:58 10° NE 06:37:29 18° E 06:40:58 10° SE visible
20 Oct 4.7 19:33:28 10° SSW 19:38:04 34° W 19:42:42 10° NNW visible
21 Oct 3.5 18:56:03 10° S 19:01:05 65° WSW 19:06:11 10° NNW visible
21 Oct 6.2 20:39:37 10° W 20:41:09 11° W 20:42:41 10° WNW visible
22 Oct 3.0 18:19:17 10° SSE 18:24:19 67° ENE 18:29:23 10° N visible
22 Oct 5.5 19:59:55 10° SW 20:03:50 22° W 20:07:46 10° NW visible
23 Oct 6.2 06:23:07 10° NE 06:26:03 15° E 06:28:58 10° ESE visible
23 Oct 4.4 19:21:56 10° SSW 19:26:43 41° W 19:31:33 10° NNW visible
24 Oct 3.2 18:44:43 10° SSE 18:49:48 79° WSW 18:54:56 10° NNW visible
24 Oct 6.1 20:27:07 10° WSW 20:29:42 14° W 20:32:18 10° NW visible
25 Oct 5.8 06:47:48 10° NE 06:51:54 24° E 06:55:58 10° SE visible
25 Oct 3.1 18:08:07 10° SE 18:13:05 56° ENE 18:18:04 10° N visible
25 Oct 5.2 19:48:12 10° SSW 19:52:26 26° W 19:56:43 10° NW visible
26 Oct 6.4 06:12:31 10° ENE 06:14:37 12° E 06:16:41 10° ESE visible
26 Oct 4.0 19:10:28 10° S 19:15:23 50° W 19:20:22 10° NNW visible
27 Oct 3.0 17:33:27 10° SSE 17:38:31 86° ENE 17:43:39 10° NNW visible
27 Oct 5.8 19:15:01 10° SW 19:18:16 17° W 19:21:33 10° NW visible
